Colorado City, AZ

2:49 PM MST on November 12, 2019 (GMT -0700)
Colorado City Municipal

Weather History for KAZC - September, 2019

Change the Weather History Date:

Wednesday, September 11, 2019

  Actual Average (KSGU) Record (KSGU)
Temperature  
Mean Temperature 65 °F -  
Max Temperature 80 °F 94 °F 106 °F (1990)
Min Temperature 50 °F 62 °F 44 °F (1931)
Growing Degree Days 15 (Base 50)    
Moisture  
Dew Point 34 °F    
Average Humidity 32    
Maximum Humidity 58    
Minimum Humidity 12    
Precipitation  
Precipitation 0.00 in - - ()
Sea Level Pressure  
Sea Level Pressure 30.12 in    
Wind  
Wind Speed 6 mph (WSW)    
Max Wind Speed 16 mph    
Max Gust Speed 25 mph    
Visibility 10 miles    
Events      
Averages and records for this station are not official NWS values.
T = Trace of Precipitation, MM = Missing Value Source: NWS Daily Summary

Daily Weather History Graph

Daily Weather History Graph

Search for Another Location

Airport or City:

Astronomy

Sep. 11, 2019 Rise Set
Actual Time 6:10 AM MST 6:45 PM MST
Civil Twilight 5:44 AM MST 7:12 PM MST
Nautical Twilight 5:13 AM MST 7:42 PM MST
Astronomical Twilight 4:42 AM MST 8:14 PM MST
Moon 5:55 PM MST (9/11) 3:42 AM MST (9/11)
Length of Visible Light 13h 27m
Length of Day
12h 35m
Waxing Gibbous, 95% of the Moon is Illuminated
Sep 11
Waxing Gibbous
Sep 13
Full
Sep 21
Last Quarter
Sep 28
New
Oct 5
First Quarter

Hourly Weather History & Observations

Time (MST) Temp. Dew Point Humidity Pressure Visibility Wind Dir Wind Speed Gust Speed Precip Events Conditions
12:15 AM 64.4 °F 44.6 °F 49% 29.97 in - SSW 10.4 mph - N/A   Clear
12:35 AM 69.8 °F 41.0 °F 35% 29.98 in - SSW 8.1 mph - N/A   Clear
12:55 AM 68.0 °F 41.0 °F 37% 29.98 in 10.0 mi SSW 6.9 mph - N/A   Clear
1:15 AM 66.2 °F 39.2 °F 37% 29.98 in 10.0 mi South 5.8 mph - N/A   Clear
1:35 AM 60.8 °F 41.0 °F 48% 29.99 in 10.0 mi Calm Calm - N/A   Clear
1:55 AM 64.4 °F 37.4 °F 37% 29.99 in 10.0 mi South 6.9 mph - N/A   Clear
2:15 AM 66.2 °F 35.6 °F 32% 30.00 in 10.0 mi Calm Calm - N/A   Clear
2:35 AM 60.8 °F 37.4 °F 42% 30.00 in - Calm Calm - N/A   Clear
2:55 AM 59.0 °F 37.4 °F 45% 30.00 in - Calm Calm - N/A   Clear
3:15 AM 59.0 °F 37.4 °F 45% 30.01 in - Calm Calm - N/A   Clear
3:35 AM 57.2 °F 37.4 °F 48% 30.01 in - Calm Calm - N/A   Clear
3:55 AM 51.8 °F 37.4 °F 58% 30.01 in - Calm Calm - N/A   Clear
4:15 AM 55.4 °F 35.6 °F 47% 30.02 in - Calm Calm - N/A   Clear
4:35 AM 51.8 °F 35.6 °F 54% 30.03 in - ESE 3.5 mph - N/A   Clear
4:55 AM 53.6 °F 37.4 °F 54% 30.04 in - NNE 5.8 mph - N/A   Clear
5:15 AM 53.6 °F 35.6 °F 51% 30.05 in - ENE 5.8 mph - N/A   Clear
5:35 AM 53.6 °F 35.6 °F 51% 30.06 in - NE 3.5 mph - N/A   Clear
5:55 AM 51.8 °F 35.6 °F 54% 30.07 in 10.0 mi Calm Calm - N/A   Clear
6:15 AM 50.0 °F 35.6 °F 58% 30.08 in 10.0 mi Calm Calm - N/A   Clear
6:35 AM 50.0 °F 35.6 °F 58% 30.09 in 10.0 mi Calm Calm - N/A   Clear
6:55 AM 53.6 °F 37.4 °F 54% 30.10 in 10.0 mi Calm Calm - N/A   Clear
7:15 AM 57.2 °F 37.4 °F 48% 30.11 in 10.0 mi SSE 3.5 mph - N/A   Clear
7:35 AM 62.6 °F 37.4 °F 39% 30.12 in 10.0 mi SSE 6.9 mph - N/A   Clear
7:55 AM 68.0 °F 37.4 °F 33% 30.13 in 10.0 mi SE 5.8 mph - N/A   Clear
8:15 AM 69.8 °F 37.4 °F 31% 30.13 in 10.0 mi South 9.2 mph - N/A   Clear
8:35 AM 69.8 °F 37.4 °F 31% 30.14 in 10.0 mi SSW 9.2 mph - N/A   Clear
8:55 AM 71.6 °F 39.2 °F 31% 30.15 in 10.0 mi SW 10.4 mph 17.3 mph N/A   Clear
9:15 AM 71.6 °F 37.4 °F 29% 30.15 in 10.0 mi SSW 9.2 mph 20.7 mph N/A   Clear
9:35 AM 73.4 °F 37.4 °F 27% 30.15 in 10.0 mi SW 9.2 mph 18.4 mph N/A   Clear
9:55 AM 73.4 °F 37.4 °F 27% 30.15 in 10.0 mi West 10.4 mph 19.6 mph N/A   Clear
10:15 AM 73.4 °F 37.4 °F 27% 30.15 in 10.0 mi West 11.5 mph 18.4 mph N/A   Clear
10:35 AM 75.2 °F 35.6 °F 24% 30.15 in 10.0 mi SW 10.4 mph 23.0 mph N/A   Clear
10:55 AM 77.0 °F 33.8 °F 21% 30.15 in 10.0 mi West 8.1 mph 18.4 mph N/A   Clear
11:15 AM 77.0 °F 35.6 °F 22% 30.15 in 10.0 mi West 16.1 mph 25.3 mph N/A   Clear
11:35 AM 77.0 °F 33.8 °F 21% 30.16 in 10.0 mi West 11.5 mph 20.7 mph N/A   Clear
11:55 AM 77.0 °F 32.0 °F 19% 30.16 in 10.0 mi West 15.0 mph 21.9 mph N/A   Clear
12:15 PM 78.8 °F 33.8 °F 20% 30.16 in 10.0 mi West 11.5 mph 20.7 mph N/A   Clear
12:35 PM 78.8 °F 35.6 °F 21% 30.15 in 10.0 mi West 8.1 mph 20.7 mph N/A   Clear
12:55 PM 78.8 °F 35.6 °F 21% 30.15 in 10.0 mi WSW 11.5 mph 20.7 mph N/A   Clear
1:15 PM 78.8 °F 35.6 °F 21% 30.15 in 10.0 mi WNW 6.9 mph 17.3 mph N/A   Clear
1:35 PM 80.6 °F 35.6 °F 20% 30.14 in 10.0 mi WNW 10.4 mph 23.0 mph N/A   Clear
1:55 PM 80.6 °F 35.6 °F 20% 30.14 in 10.0 mi WNW 11.5 mph 20.7 mph N/A   Clear
2:15 PM 80.6 °F 35.6 °F 20% 30.13 in 10.0 mi West 8.1 mph 16.1 mph N/A   Clear
2:35 PM 80.6 °F 35.6 °F 20% 30.13 in 10.0 mi WNW 11.5 mph 21.9 mph N/A   Clear
2:55 PM 80.6 °F 35.6 °F 20% 30.12 in 10.0 mi West 13.8 mph 24.2 mph N/A   Clear
3:15 PM 80.6 °F 33.8 °F 18% 30.13 in 10.0 mi West 9.2 mph 17.3 mph N/A   Clear
3:35 PM 80.6 °F 32.0 °F 17% 30.13 in 10.0 mi NNW 4.6 mph 20.7 mph N/A   Clear
3:55 PM 80.6 °F 32.0 °F 17% 30.13 in 10.0 mi NW 11.5 mph 19.6 mph N/A   Clear
4:15 PM 80.6 °F 32.0 °F 17% 30.13 in 10.0 mi WNW 12.7 mph - N/A   Clear
4:35 PM 80.6 °F 30.2 °F 16% 30.14 in 10.0 mi West 11.5 mph 24.2 mph N/A   Clear
4:55 PM 78.8 °F 28.4 °F 16% 30.14 in 10.0 mi WNW 12.7 mph 21.9 mph N/A   Clear
5:15 PM 78.8 °F 26.6 °F 15% 30.15 in 10.0 mi WNW 11.5 mph 17.3 mph N/A   Clear
5:35 PM 78.8 °F 21.2 °F 12% 30.15 in 10.0 mi West 9.2 mph - N/A   Clear
5:55 PM 78.8 °F 24.8 °F 14% 30.15 in 10.0 mi WNW 9.2 mph - N/A   Clear
6:35 PM 73.4 °F 26.6 °F 18% 30.15 in 10.0 mi WNW 8.1 mph - N/A   Clear
6:55 PM 71.6 °F 26.6 °F 19% 30.16 in 10.0 mi NW 3.5 mph - N/A   Clear
7:15 PM 69.8 °F 26.6 °F 20% 30.16 in - Calm Calm - N/A   Clear
7:35 PM 66.2 °F 26.6 °F 23% 30.17 in - Calm Calm - N/A   Clear
7:55 PM 60.8 °F 30.2 °F 31% 30.18 in - NE 4.6 mph - N/A   Clear
8:15 PM 59.0 °F 30.2 °F 34% 30.19 in - ESE 4.6 mph - N/A   Clear
8:35 PM 57.2 °F 28.4 °F 33% 30.20 in - Calm Calm - N/A   Clear
8:55 PM 57.2 °F 28.4 °F 33% 30.20 in - Calm Calm - N/A   Clear
9:15 PM 53.6 °F 26.6 °F 35% 30.21 in - Calm Calm - N/A   Clear
9:35 PM 53.6 °F 26.6 °F 35% 30.22 in 10.0 mi Calm Calm - N/A   Clear
9:55 PM 53.6 °F 30.2 °F 41% 30.22 in 10.0 mi Calm Calm - N/A   Clear
10:15 PM 53.6 °F 28.4 °F 38% 30.22 in - Calm Calm - N/A   Clear
10:35 PM 50.0 °F 26.6 °F 40% 30.23 in - ESE 5.8 mph - N/A   Clear
10:55 PM 50.0 °F 26.6 °F 40% 30.24 in - SE 3.5 mph - N/A   Clear
11:15 PM 50.0 °F 28.4 °F 43% 30.24 in - SSW 4.6 mph - N/A   Clear
11:35 PM 57.2 °F 32.0 °F 38% 30.24 in - NE 11.5 mph - N/A   Clear
11:55 PM 64.4 °F 32.0 °F 30% 30.24 in - NE 12.7 mph - N/A   Clear